When you browse on this site, cookies collect data to enhance your experience and personalize the content and advertising you see.
Visit our Privacy Policy to learn more. By continuing to use the site, you agree to this use of cookies and data.
  • In Schweiz
  • Länderverzeichnis
  • Für 7 Tage
  • Wassertemperatur
  • Wetterkarte
  • Widgets
  • user-avatar
    Anmelden

    Stündliche Wetter Finiks

    Heute, 6 Juni, Samstag

    Zeit Temperatur Niederschläge Wind Luftdruck Luftfeuchtigkeit
    00:00 +29°C° 0 mm 5 m/S 727 mmHg 26%
    01:00 +28°C° 0 mm 5 m/S 727 mmHg 28%
    02:00 +27°C° 0 mm 5 m/S 727 mmHg 31%
    03:00 +26°C° 0 mm 5 m/S 727 mmHg 37%
    04:00 +25°C° 0 mm 4 m/S 727 mmHg 43%
    05:00 +23°C° 0 mm 4 m/S 728 mmHg 49%
    06:00 +24°C° 0 mm 3 m/S 728 mmHg 48%
    07:00 +25°C° 0 mm 3 m/S 729 mmHg 47%
    08:00 +25°C° 0 mm 3 m/S 729 mmHg 46%
    09:00 +27°C° 0 mm 2 m/S 729 mmHg 41%
    10:00 +28°C° 0 mm 2 m/S 729 mmHg 35%
    11:00 +29°C° 0 mm 2 m/S 729 mmHg 30%
    12:00 +30°C° 0 mm 2 m/S 729 mmHg 26%
    13:00 +32°C° 0 mm 2 m/S 728 mmHg 22%
    14:00 +34°C° 0 mm 2 m/S 727 mmHg 18%
    15:00 +35°C° 0 mm 3 m/S 727 mmHg 17%
    16:00 +35°C° 0 mm 3 m/S 726 mmHg 15%
    17:00 +36°C° 0 mm 4 m/S 726 mmHg 14%
    18:00 +35°C° 0 mm 4 m/S 726 mmHg 16%
    19:00 +34°C° 0 mm 4 m/S 726 mmHg 17%
    20:00 +33°C° 0 mm 4 m/S 727 mmHg 19%
    21:00 +33°C° 0 mm 4 m/S 727 mmHg 20%
    22:00 +32°C° 0 mm 4 m/S 727 mmHg 21%
    23:00 +30°C° 0 mm 3 m/S 727 mmHg 23%

    Morgen, 7 Juni, Sonntag

    Zeit Temperatur Niederschläge Wind Luftdruck Luftfeuchtigkeit
    00:00 +29°C° 0 mm 3 m/S 727 mmHg 26%
    01:00 +28°C° 0 mm 3 m/S 727 mmHg 28%
    02:00 +27°C° 0 mm 3 m/S 727 mmHg 31%
    03:00 +27°C° 0 mm 3 m/S 727 mmHg 34%
    04:00 +26°C° 0 mm 2 m/S 727 mmHg 37%
    05:00 +26°C° 0 mm 2 m/S 727 mmHg 39%
    06:00 +27°C° 0 mm 2 m/S 727 mmHg 36%
    07:00 +28°C° 0 mm 2 m/S 727 mmHg 34%
    08:00 +29°C° 0 mm 1 m/S 727 mmHg 31%
    09:00 +30°C° 0 mm 2 m/S 727 mmHg 28%
    10:00 +31°C° 0 mm 3 m/S 727 mmHg 25%
    11:00 +34°C° 0 mm 3 m/S 727 mmHg 22%
    12:00 +35°C° 0 mm 4 m/S 727 mmHg 19%
    13:00 +36°C° 0 mm 5 m/S 726 mmHg 17%
    14:00 +39°C° 0 mm 5 m/S 726 mmHg 14%
    15:00 +39°C° 0 mm 6 m/S 726 mmHg 13%
    16:00 +39°C° 0 mm 6 m/S 725 mmHg 12%
    17:00 +39°C° 0 mm 7 m/S 725 mmHg 11%
    18:00 +38°C° 0 mm 6 m/S 725 mmHg 10%
    19:00 +36°C° 0 mm 6 m/S 725 mmHg 10%
    20:00 +34°C° 0 mm 5 m/S 726 mmHg 9%
    21:00 +33°C° 0 mm 5 m/S 726 mmHg 10%
    22:00 +33°C° 0 mm 4 m/S 726 mmHg 11%
    23:00 +32°C° 0 mm 4 m/S 727 mmHg 12%

    übermorgen, 8 Juni, Montag

    Zeit Temperatur Niederschläge Wind Luftdruck Luftfeuchtigkeit
    00:00 +30°C° 0 mm 4 m/S 727 mmHg 16%
    01:00 +28°C° 0 mm 4 m/S 727 mmHg 19%
    02:00 +27°C° 0 mm 4 m/S 727 mmHg 23%
    03:00 +27°C° 0 mm 3 m/S 727 mmHg 26%
    04:00 +26°C° 0 mm 3 m/S 727 mmHg 29%
    05:00 +25°C° 0 mm 2 m/S 727 mmHg 32%
    06:00 +27°C° 0 mm 2 m/S 728 mmHg 30%
    07:00 +28°C° 0 mm 2 m/S 728 mmHg 27%
    08:00 +29°C° 0 mm 2 m/S 729 mmHg 24%
    09:00 +30°C° 0 mm 2 m/S 729 mmHg 20%
    10:00 +32°C° 0 mm 2 m/S 729 mmHg 16%
    11:00 +34°C° 0 mm 2 m/S 729 mmHg 13%
    12:00 +35°C° 0 mm 3 m/S 729 mmHg 11%
    13:00 +36°C° 0 mm 4 m/S 729 mmHg 9%
    14:00 +39°C° 0 mm 5 m/S 729 mmHg 7%
    15:00 +39°C° 0 mm 5 m/S 728 mmHg 7%
    16:00 +39°C° 0 mm 5 m/S 728 mmHg 6%
    17:00 +39°C° 0 mm 5 m/S 728 mmHg 6%
    18:00 +37°C° 0 mm 5 m/S 728 mmHg 7%
    19:00 +36°C° 0 mm 5 m/S 728 mmHg 8%
    20:00 +35°C° 0 mm 5 m/S 729 mmHg 9%
    21:00 +33°C° 0 mm 4 m/S 729 mmHg 8%
    22:00 +32°C° 0 mm 4 m/S 730 mmHg 7%
    23:00 +30°C° 0 mm 3 m/S 730 mmHg 7%

    9 Juni, Dienstag

    Zeit Temperatur Niederschläge Wind Luftdruck Luftfeuchtigkeit
    00:00 +29°C° 0 mm 3 m/S 730 mmHg 7%
    01:00 +28°C° 0 mm 2 m/S 730 mmHg 7%
    02:00 +28°C° 0 mm 1 m/S 730 mmHg 8%
    03:00 +27°C° 0 mm 1 m/S 730 mmHg 8%
    04:00 +27°C° 0 mm 1 m/S 730 mmHg 8%
    05:00 +26°C° 0 mm 1 m/S 730 mmHg 8%
    06:00 +28°C° 0 mm 1 m/S 731 mmHg 8%
    07:00 +29°C° 0 mm 1 m/S 731 mmHg 7%
    08:00 +31°C° 0 mm 2 m/S 731 mmHg 7%
    09:00 +32°C° 0 mm 1 m/S 731 mmHg 6%
    10:00 +33°C° 0 mm 1 m/S 731 mmHg 6%
    11:00 +35°C° 0 mm 1 m/S 731 mmHg 5%
    12:00 +37°C° 0 mm 2 m/S 731 mmHg 4%
    13:00 +38°C° 0 mm 2 m/S 731 mmHg 4%
    14:00 +39°C° 0 mm 3 m/S 730 mmHg 3%
    15:00 +39°C° 0 mm 3 m/S 730 mmHg 3%
    16:00 +39°C° 0 mm 3 m/S 730 mmHg 3%
    17:00 +40°C° 0 mm 3 m/S 730 mmHg 3%
    18:00 +38°C° 0 mm 3 m/S 730 mmHg 3%
    19:00 +37°C° 0 mm 3 m/S 730 mmHg 4%
    20:00 +35°C° 0 mm 2 m/S 730 mmHg 4%
    21:00 +35°C° 0 mm 2 m/S 731 mmHg 5%
    22:00 +34°C° 0 mm 2 m/S 731 mmHg 5%
    23:00 +32°C° 0 mm 2 m/S 732 mmHg 6%

    10 Juni, Mittwoch

    Zeit Temperatur Niederschläge Wind Luftdruck Luftfeuchtigkeit
    00:00 +31°C° 0 mm 2 m/S 731 mmHg 6%
    01:00 +30°C° 0 mm 1 m/S 731 mmHg 7%
    02:00 +29°C° 0 mm 1 m/S 731 mmHg 7%
    03:00 +29°C° 0 mm 1 m/S 731 mmHg 8%
    04:00 +28°C° 0 mm 1 m/S 731 mmHg 8%
    05:00 +28°C° 0 mm 1 m/S 731 mmHg 8%
    06:00 +29°C° 0 mm 1 m/S 732 mmHg 7%
    07:00 +31°C° 0 mm 1 m/S 732 mmHg 7%
    08:00 +33°C° 0 mm 1 m/S 732 mmHg 6%
    09:00 +34°C° 0 mm 1 m/S 732 mmHg 5%
    10:00 +36°C° 0 mm 1 m/S 732 mmHg 5%
    11:00 +39°C° 0 mm 1 m/S 732 mmHg 4%
    12:00 +40°C° 0 mm 1 m/S 732 mmHg 5%
    13:00 +41°C° 0 mm 1 m/S 731 mmHg 5%
    14:00 +42°C° 0 mm 1 m/S 731 mmHg 5%
    15:00 +42°C° 0 mm 1 m/S 730 mmHg 5%
    16:00 +42°C° 0 mm 1 m/S 730 mmHg 5%
    17:00 +43°C° 0 mm 2 m/S 729 mmHg 5%
    18:00 +41°C° 0 mm 2 m/S 730 mmHg 6%
    19:00 +40°C° 0 mm 1 m/S 730 mmHg 6%
    20:00 +39°C° 0 mm 1 m/S 730 mmHg 7%
    21:00 +38°C° 0 mm 2 m/S 730 mmHg 7%
    22:00 +37°C° 0 mm 2 m/S 730 mmHg 8%
    23:00 +36°C° 0 mm 2 m/S 731 mmHg 8%

    11 Juni, Donnerstag

    Zeit Temperatur Niederschläge Wind Luftdruck Luftfeuchtigkeit
    00:00 +35°C° 0 mm 2 m/S 730 mmHg 9%
    01:00 +34°C° 0 mm 2 m/S 730 mmHg 10%
    02:00 +32°C° 0 mm 2 m/S 730 mmHg 11%
    03:00 +31°C° 0 mm 1 m/S 730 mmHg 13%
    04:00 +31°C° 0 mm 1 m/S 730 mmHg 14%
    05:00 +30°C° 0 mm 1 m/S 730 mmHg 15%
    06:00 +31°C° 0 mm 1 m/S 730 mmHg 14%
    07:00 +33°C° 0 mm 1 m/S 730 mmHg 12%
    08:00 +34°C° 0 mm 1 m/S 730 mmHg 11%
    09:00 +36°C° 0 mm 1 m/S 730 mmHg 10%
    10:00 +39°C° 0 mm 1 m/S 730 mmHg 9%
    11:00 +40°C° 0 mm 1 m/S 730 mmHg 8%
    12:00 +41°C° 0 mm 1 m/S 730 mmHg 7%
    13:00 +43°C° 0 mm 1 m/S 729 mmHg 7%
    14:00 +45°C° 0 mm 2 m/S 729 mmHg 6%
    15:00 +45°C° 0 mm 2 m/S 728 mmHg 6%
    16:00 +45°C° 0 mm 3 m/S 728 mmHg 6%
    17:00 +46°C° 0 mm 3 m/S 728 mmHg 6%
    18:00 +44°C° 0 mm 4 m/S 728 mmHg 6%
    19:00 +43°C° 0 mm 4 m/S 728 mmHg 6%
    20:00 +41°C° 0 mm 4 m/S 728 mmHg 6%
    21:00 +40°C° 0 mm 4 m/S 728 mmHg 7%
    22:00 +38°C° 0 mm 3 m/S 729 mmHg 8%
    23:00 +36°C° 0 mm 3 m/S 729 mmHg 8%
    Mehr zeigen